Back to catalog

STARLINK-35192

AliveCommunicationsVLEO
NORAD 65933·PAYLOAD·🇺🇸 United States

Launched Oct 8, 2025 from Vandenberg Space Force Base

Loading…

Next Passes (next 24 hours)

TLE

FreshSource: CelesTrak SupGP

Epoch: Sep 14, 2026, 14:34 UTC

1 65933C 25225Z   26257.60743056 -.00147160  00000+0 -43491-2 0  2575
2 65933  53.1592   5.0123 0001178  82.7245  33.4026 15.34455297    13

Track STARLINK-35192 in real time with AllMySat

Download on the App Store